QPF
0.03 0.04 0.04 0.04 0.04 0.04 0.04 0.03 0.03 0.02 0.02 0.03 0.04 0.04 0.06 0.09 0.10 0.08 0.07 0.06 0.06 0.07 0.09 0.10 0.10 0.10 0.10 0.11 0.12 0.12 0.14 0.14 0.18 0.21 0.18 0.15 0.13 0.11 0.09 0.06 0.05 0.04 0.03
0.02 0.02 0.02 0.03 0.02 0.02 0.03 0.03 0.03 0.03 0.03 0.03 0.03 0.03 0.03 0.05 0.06 0.08 0.08 0.06 0.05 0.06 0.07 0.07 0.08 0.09 0.09 0.08 0.09 0.10 0.13 0.14 0.16 0.18 0.17 0.14 0.11 0.08 0.06 0.05 0.03 0.02 0.02
0.02 0.02 0.02 0.03 0.03 0.03 0.03 0.04 0.03 0.03 0.03 0.03 0.02 0.03 0.03 0.03 0.02 0.04 0.05 0.05 0.05 0.05 0.05 0.06 0.07 0.08 0.09 0.09 0.08 0.09 0.12 0.15 0.16 0.16 0.15 0.13 0.11 0.07 0.05 0.05 0.04 0.04 0.03
0.04 0.03 0.03 0.04 0.04 0.04 0.03 0.03 0.03 0.03 0.02 0.02 0.02 0.02 0.02 0.02 0.01 0.02 0.02 0.04 0.05 0.06 0.06 0.07 0.09 0.10 0.10 0.09 0.09 0.10 0.10 0.12 0.14 0.15 0.14 0.12 0.10 0.08 0.07 0.07 0.06 0.05 0.03
0.03 0.05 0.06 0.05 0.04 0.05 0.05 0.05 0.04 0.04 0.03 0.02 0.02 0.02 0.02 0.02 0.02 0.02 0.03 0.03 0.04 0.05 0.05 0.05 0.07 0.08 0.09 0.08 0.07 0.07 0.08 0.09 0.10 0.10 0.09 0.09 0.08 0.08 0.07 0.06 0.06 0.05 0.03
0.03 0.05 0.07 0.05 0.05 0.06 0.07 0.07 0.06 0.05 0.04 0.03 0.02 0.02 0.02 0.02 0.02 0.03 0.04 0.05 0.05 0.05 0.05 0.05 0.04 0.05 0.05 0.04 0.04 0.04 0.05 0.06 0.06 0.06 0.06 0.07 0.07 0.06 0.05 0.05 0.05 0.05 0.05
0.02 0.03 0.04 0.04 0.05 0.06 0.06 0.07 0.07 0.06 0.05 0.04 0.04 0.04 0.02 0.02 0.02 0.02 0.03 0.05 0.05 0.05 0.05 0.04 0.03 0.03 0.03 0.03 0.02 0.02 0.02 0.02 0.03 0.04 0.05 0.05 0.05 0.05 0.04 0.04 0.04 0.04 0.05
0.02 0.03 0.02 0.02 0.03 0.04 0.05 0.06 0.06 0.07 0.06 0.06 0.06 0.04 0.02 0.02 0.02 0.01 0.02 0.03 0.03 0.03 0.03 0.03 0.03 0.02 0.01 0.02 0.02 0.02 0.01 0.01 0.01 0.02 0.03 0.03 0.03 0.03 0.04 0.04 0.04 0.04 0.04
0.03 0.04 0.03 0.03 0.03 0.04 0.05 0.06 0.05 0.06 0.06 0.06 0.05 0.04 0.02 0.01 0.01 0.01 0.01 0.02 0.02 0.01 0.01 0.01 0.01 0.01 0.00 0.01 0.03 0.03 0.01 0.01 0.00 0.00 0.01 0.01 0.01 0.01 0.02 0.04 0.05 0.05 0.06
0.03 0.03 0.03 0.04 0.05 0.06 0.06 0.06 0.05 0.05 0.05 0.05 0.04 0.03 0.02 0.01 0.00 0.00 0.01 0.02 0.01 0.01 0.00 0.00 0.00 0.00 0.00 0.01 0.03 0.04 0.03 0.02 0.01 0.01 0.01 0.01 0.00 0.01 0.01 0.03 0.05 0.06 0.07
0.01 0.01 0.02 0.03 0.04 0.05 0.05 0.06 0.06 0.05 0.06 0.06 0.04 0.03 0.01 0.00 0.00 0.00 0.00 0.01 0.01 0.01 0.00 0.00 0.00 0.00 0.00 0.00 0.01 0.01 0.01 0.01 0.02 0.02 0.03 0.03 0.02 0.03 0.02 0.02 0.03 0.04 0.05
0.02 0.03 0.03 0.02 0.02 0.03 0.04 0.05 0.06 0.07 0.07 0.07 0.05 0.03 0.01 0.00 0.00 0.00 0.00 0.00 0.00 0.01 0.00 0.00 0.00 0.00 0.00 0.00 0.00 0.00 0.01 0.01 0.02 0.02 0.02 0.03 0.03 0.03 0.03 0.03 0.02 0.02 0.02
0.02 0.03 0.03 0.03 0.03 0.03 0.03 0.05 0.06 0.06 0.06 0.05 0.04 0.04 0.03 0.01 0.00 0.00 0.00 0.00 0.00 0.00 0.00 0.00 0.00 0.00 0.00 0.00 0.00 0.00 0.01 0.01 0.02 0.02 0.02 0.02 0.02 0.03 0.02 0.02 0.02 0.02 0.01
0.03 0.03 0.03 0.03 0.04 0.04 0.04 0.04 0.05 0.05 0.05 0.05 0.04 0.03 0.03 0.02 0.01 0.00 0.01 0.00 0.00 0.00 0.00 0.00 0.00 0.00 0.00 0.00 0.00 0.00 0.01 0.01 0.01 0.02 0.02 0.02 0.02 0.02 0.01 0.01 0.01 0.02 0.02
0.03 0.03 0.03 0.02 0.03 0.03 0.03 0.02 0.03 0.03 0.03 0.03 0.04 0.03 0.03 0.01 0.00 0.00 0.00 0.01 0.00 0.00 0.01 0.01 0.01 0.00 0.00 0.00 0.00 0.01 0.01 0.01 0.01 0.01 0.01 0.01 0.02 0.01 0.01 0.01 0.01 0.01 0.01
0.02 0.01 0.01 0.01 0.01 0.01 0.01 0.01 0.01 0.01 0.01 0.01 0.01 0.01 0.01 0.00 0.00 0.00 0.00 0.00 0.00 0.00 0.00 0.01 0.01 0.00 0.00 0.00 0.01 0.01 0.01 0.01 0.01 0.01 0.02 0.02 0.01 0.01 0.01 0.01 0.00 0.00 0.00
0.02 0.02 0.01 0.01 0.01 0.01 0.01 0.02 0.01 0.01 0.00 0.00 0.00 0.00 0.00 0.00 0.00 0.00 0.00 0.00 0.00 0.00 0.00 0.00 0.00 0.00 0.00 0.00 0.00 0.00 0.00 0.00 0.01 0.01 0.01 0.01 0.00 0.00 0.00 0.00 0.00 0.00 0.00
0.01 0.01 0.01 0.01 0.01 0.01 0.01 0.01 0.01 0.01 0.01 0.00 0.00 0.00 0.00 0.00 0.00 0.00 0.00 0.00 0.01 0.01 0.01 0.00 0.00 0.00 0.00 0.00 0.00 0.00 0.00 0.00 0.00 0.00 0.01 0.00 0.00 0.00 0.00 0.00 0.00 0.00 0.00
0.01 0.01 0.01 0.01 0.01 0.01 0.01 0.01 0.00 0.00 0.00 0.00 0.00 0.00 0.00 0.00 0.00 0.00 0.00 0.01 0.01 0.01 0.01 0.00 0.00 0.00 0.00 0.00 0.00 0.00 0.00 0.00 0.00 0.00 0.00 0.00 0.00 0.00 0.00 0.00 0.00 0.00 0.00
0.01 0.00 0.00 0.00 0.00 0.00 0.00 0.00 0.00 0.00 0.00 0.00 0.00 0.01 0.00 0.00 0.01 0.01 0.01 0.01 0.01 0.00 0.00 0.00 0.00 0.00 0.00 0.00 0.00 0.00 0.00 0.00 0.00 0.00 0.00 0.00 0.00 0.00 0.00 0.00 0.00 0.00 0.00
0.00 0.00 0.00 0.00 0.00 0.00 0.00 0.00 0.00 0.00 0.00 0.00 0.00 0.00 0.00 0.00 0.00 0.01 0.01 0.00 0.00 0.00 0.00 0.00 0.00 0.00 0.00 0.00 0.00 0.00 0.00 0.00 0.00 0.00 0.00 0.00 0.00 0.00 0.00 0.00 0.00 0.00 0.00
0.00 0.00 0.00 0.00 0.00 0.00 0.00 0.00 0.00 0.00 0.00 0.00 0.00 0.00 0.00 0.00 0.00 0.00 0.00 0.00 0.00 0.00 0.00 0.00 0.00 0.00 0.00 0.00 0.00 0.00 0.00 0.00 0.00 0.00 0.00 0.00 0.00 0.00 0.00 0.00 0.00 0.00 0.00
0.00 0.00 0.00 0.00 0.00 0.00 0.00 0.00 0.00 0.00 0.00 0.00 0.00 0.00 0.00 0.00 0.00 0.00 0.00 0.00 0.00 0.00 0.00 0.00 0.00 0.00 0.00 0.00 0.00 0.00 0.00 0.00 0.00 0.00 0.00 0.00 0.00 0.00 0.00 0.00 0.00 0.00 0.00
0.00 0.00 0.00 0.00 0.00 0.00 0.00 0.00 0.00 0.00 0.00 0.00 0.00 0.00 0.00 0.00 0.00 0.00 0.00 0.00 0.00 0.00 0.00 0.00 0.00 0.00 0.00 0.00 0.00 0.00 0.00 0.00 0.00 0.00 0.00 0.00 0.00 0.00 0.00 0.00 0.00 0.00 0.00
0.00 0.00 0.00 0.00 0.00 0.00 0.00 0.00 0.00 0.00 0.00 0.00 0.00 0.00 0.00 0.00 0.00 0.00 0.00 0.00 0.00 0.00 0.00 0.00 0.00 0.00 0.00 0.00 0.00 0.00 0.00 0.00 0.00 0.00 0.00 0.00 0.00 0.00 0.00 0.00 0.00 0.00 0.00
0.00 0.00 0.00 0.00 0.00 0.00 0.00 0.00 0.00 0.00 0.00 0.00 0.00 0.00 0.00 0.00 0.00 0.00 0.00 0.00 0.00 0.00 0.00 0.00 0.00 0.00 0.00 0.00 0.00 0.00 0.00 0.00 0.00 0.00 0.00 0.00 0.00 0.00 0.00 0.00 0.00 0.00 0.00
MSLP
1019.64 1019.64 1019.62 1019.56 1019.44 1019.24 1018.98 1018.66 1018.32 1017.99 1017.68 1017.42 1017.18 1016.99 1016.81 1016.64 1016.48 1016.32 1016.18 1016.07 1016.00 1015.99 1016.04 1016.17 1016.38 1016.67 1017.03 1017.48 1018.02 1018.64 1019.34 1020.11 1020.92 1021.74 1022.52 1023.23 1023.83 1024.29 1024.61 1024.80 1024.88 1024.91 1024.94
1020.03 1020.02 1020.00 1019.97 1019.89 1019.74 1019.53 1019.26 1018.96 1018.65 1018.35 1018.08 1017.85 1017.65 1017.47 1017.31 1017.16 1017.01 1016.88 1016.75 1016.66 1016.60 1016.58 1016.63 1016.75 1016.94 1017.22 1017.60 1018.07 1018.64 1019.30 1020.03 1020.80 1021.58 1022.34 1023.01 1023.58 1024.02 1024.33 1024.52 1024.62 1024.68 1024.72
1020.37 1020.36 1020.37 1020.37 1020.32 1020.23 1020.06 1019.85 1019.59 1019.31 1019.04 1018.79 1018.58 1018.39 1018.23 1018.10 1017.96 1017.83 1017.70 1017.57 1017.44 1017.34 1017.26 1017.22 1017.25 1017.35 1017.54 1017.83 1018.22 1018.71 1019.30 1019.95 1020.66 1021.37 1022.06 1022.67 1023.19 1023.60 1023.90 1024.10 1024.22 1024.31 1024.39
1020.70 1020.72 1020.75 1020.78 1020.79 1020.73 1020.62 1020.44 1020.23 1019.99 1019.75 1019.54 1019.35 1019.19 1019.06 1018.94 1018.83 1018.72 1018.59 1018.45 1018.29 1018.14 1018.01 1017.90 1017.85 1017.87 1017.97 1018.17 1018.48 1018.89 1019.38 1019.95 1020.55 1021.17 1021.77 1022.30 1022.76 1023.13 1023.41 1023.61 1023.76 1023.88 1024.01
1021.06 1021.11 1021.18 1021.25 1021.29 1021.27 1021.19 1021.05 1020.87 1020.66 1020.46 1020.27 1020.11 1019.98 1019.87 1019.78 1019.68 1019.58 1019.45 1019.30 1019.12 1018.94 1018.76 1018.61 1018.50 1018.46 1018.50 1018.63 1018.86 1019.18 1019.59 1020.05 1020.55 1021.06 1021.55 1022.00 1022.39 1022.71 1022.96 1023.16 1023.33 1023.48 1023.63
1021.46 1021.56 1021.66 1021.76 1021.81 1021.81 1021.75 1021.62 1021.46 1021.28 1021.09 1020.93 1020.79 1020.68 1020.59 1020.51 1020.43 1020.33 1020.20 1020.05 1019.87 1019.67 1019.48 1019.30 1019.17 1019.10 1019.10 1019.19 1019.36 1019.61 1019.93 1020.29 1020.69 1021.09 1021.48 1021.83 1022.14 1022.40 1022.63 1022.82 1022.99 1023.16 1023.33
1021.89 1022.02 1022.15 1022.26 1022.31 1022.31 1022.25 1022.12 1021.97 1021.79 1021.61 1021.45 1021.32 1021.22 1021.15 1021.08 1021.00 1020.91 1020.80 1020.65 1020.48 1020.29 1020.11 1019.95 1019.82 1019.75 1019.74 1019.81 1019.95 1020.14 1020.39 1020.67 1020.97 1021.27 1021.56 1021.83 1022.06 1022.27 1022.46 1022.63 1022.79 1022.96 1023.14
1022.30 1022.46 1022.60 1022.70 1022.74 1022.72 1022.63 1022.50 1022.33 1022.15 1021.97 1021.82 1021.69 1021.60 1021.53 1021.46 1021.40 1021.32 1021.22 1021.10 1020.96 1020.81 1020.66 1020.54 1020.44 1020.40 1020.41 1020.48 1020.60 1020.76 1020.95 1021.16 1021.38 1021.60 1021.80 1021.98 1022.15 1022.30 1022.45 1022.60 1022.75 1022.90 1023.06
1022.63 1022.80 1022.93 1023.01 1023.02 1022.98 1022.87 1022.72 1022.54 1022.35 1022.18 1022.03 1021.92 1021.83 1021.77 1021.72 1021.67 1021.61 1021.54 1021.45 1021.35 1021.25 1021.15 1021.08 1021.04 1021.03 1021.07 1021.15 1021.26 1021.39 1021.55 1021.70 1021.85 1021.99 1022.12 1022.24 1022.35 1022.46 1022.57 1022.68 1022.81 1022.94 1023.07
1022.85 1023.00 1023.11 1023.16 1023.15 1023.08 1022.96 1022.80 1022.63 1022.46 1022.30 1022.17 1022.07 1022.01 1021.96 1021.93 1021.90 1021.87 1021.83 1021.77 1021.72 1021.66 1021.62 1021.60 1021.60 1021.63 1021.69 1021.78 1021.88 1021.99 1022.11 1022.21 1022.31 1022.39 1022.46 1022.53 1022.60 1022.67 1022.74 1022.83 1022.93 1023.03 1023.12
1022.93 1023.06 1023.14 1023.17 1023.14 1023.06 1022.94 1022.80 1022.66 1022.52 1022.40 1022.31 1022.25 1022.21 1022.20 1022.19 1022.19 1022.18 1022.17 1022.15 1022.13 1022.11 1022.10 1022.11 1022.14 1022.19 1022.25 1022.33 1022.41 1022.50 1022.57 1022.63 1022.68 1022.72 1022.75 1022.78 1022.81 1022.85 1022.91 1022.97 1023.04 1023.11 1023.17
1022.89 1022.99 1023.05 1023.06 1023.03 1022.97 1022.88 1022.78 1022.69 1022.61 1022.56 1022.53 1022.52 1022.53 1022.56 1022.58 1022.60 1022.61 1022.62 1022.61 1022.60 1022.59 1022.60 1022.61 1022.63 1022.67 1022.72 1022.77 1022.82 1022.86 1022.89 1022.91 1022.91 1022.92 1022.92 1022.92 1022.94 1022.96 1023.00 1023.04 1023.09 1023.13 1023.16
1022.78 1022.86 1022.90 1022.91 1022.90 1022.87 1022.83 1022.80 1022.78 1022.79 1022.81 1022.86 1022.92 1022.99 1023.05 1023.11 1023.14 1023.16 1023.17 1023.15 1023.13 1023.11 1023.08 1023.07 1023.06 1023.06 1023.06 1023.06 1023.06 1023.06 1023.04 1023.02 1023.00 1022.97 1022.95 1022.95 1022.95 1022.97 1022.99 1023.03 1023.06 1023.08 1023.08
1022.68 1022.73 1022.77 1022.79 1022.81 1022.82 1022.85 1022.89 1022.96 1023.05 1023.17 1023.29 1023.42 1023.54 1023.64 1023.72 1023.76 1023.78 1023.76 1023.72 1023.66 1023.59 1023.52 1023.45 1023.38 1023.32 1023.26 1023.21 1023.15 1023.10 1023.04 1022.99 1022.94 1022.90 1022.87 1022.86 1022.86 1022.87 1022.89 1022.91 1022.93 1022.93 1022.91
1022.63 1022.68 1022.71 1022.74 1022.79 1022.84 1022.93 1023.04 1023.19 1023.36 1023.55 1023.75 1023.93 1024.10 1024.23 1024.31 1024.35 1024.34 1024.29 1024.21 1024.09 1023.96 1023.83 1023.69 1023.56 1023.44 1023.32 1023.21 1023.11 1023.02 1022.94 1022.86 1022.80 1022.75 1022.72 1022.71 1022.71 1022.72 1022.73 1022.73 1022.73 1022.71 1022.67
1022.67 1022.71 1022.74 1022.78 1022.83 1022.92 1023.04 1023.20 1023.40 1023.62 1023.87 1024.11 1024.34 1024.53 1024.68 1024.76 1024.79 1024.75 1024.66 1024.53 1024.36 1024.17 1023.97 1023.77 1023.58 1023.41 1023.25 1023.11 1022.98 1022.87 1022.78 1022.70 1022.64 1022.59 1022.57 1022.55 1022.55 1022.54 1022.54 1022.53 1022.50 1022.46 1022.39
1022.79 1022.81 1022.83 1022.86 1022.91 1022.99 1023.12 1023.29 1023.50 1023.75 1024.02 1024.28 1024.53 1024.73 1024.88 1024.96 1024.97 1024.91 1024.79 1024.61 1024.40 1024.17 1023.92 1023.69 1023.47 1023.26 1023.09 1022.94 1022.81 1022.71 1022.62 1022.56 1022.51 1022.48 1022.46 1022.44 1022.42 1022.40 1022.38 1022.34 1022.28 1022.21 1022.11
1022.93 1022.94 1022.93 1022.92 1022.94 1022.99 1023.09 1023.24 1023.43 1023.67 1023.93 1024.19 1024.44 1024.64 1024.79 1024.87 1024.87 1024.80 1024.66 1024.46 1024.23 1023.97 1023.71 1023.47 1023.24 1023.04 1022.88 1022.75 1022.65 1022.58 1022.53 1022.49 1022.47 1022.45 1022.43 1022.40 1022.37 1022.33 1022.27 1022.19 1022.10 1021.99 1021.86
1023.04 1023.01 1022.97 1022.91 1022.87 1022.86 1022.90 1023.00 1023.15 1023.35 1023.59 1023.83 1024.07 1024.27 1024.42 1024.50 1024.51 1024.44 1024.31 1024.11 1023.89 1023.64 1023.39 1023.16 1022.96 1022.80 1022.67 1022.58 1022.53 1022.51 1022.50 1022.50 1022.50 1022.50 1022.48 1022.44 1022.38 1022.31 1022.21 1022.10 1021.96 1021.81 1021.64
1023.05 1022.99 1022.89 1022.77 1022.66 1022.58 1022.55 1022.58 1022.67 1022.82 1023.02 1023.25 1023.48 1023.68 1023.84 1023.94 1023.97 1023.93 1023.82 1023.65 1023.45 1023.23 1023.02 1022.83 1022.67 1022.55 1022.48 1022.45 1022.46 1022.49 1022.53 1022.57 1022.59 1022.60 1022.57 1022.52 1022.44 1022.33 1022.19 1022.03 1021.86 1021.67 1021.47
1022.93 1022.83 1022.67 1022.49 1022.31 1022.15 1022.05 1022.01 1022.05 1022.15 1022.32 1022.54 1022.77 1022.98 1023.17 1023.30 1023.37 1023.36 1023.29 1023.17 1023.00 1022.83 1022.66 1022.51 1022.40 1022.33 1022.32 1022.35 1022.40 1022.48 1022.56 1022.63 1022.68 1022.69 1022.66 1022.59 1022.48 1022.34 1022.16 1021.97 1021.77 1021.55 1021.33
1022.68 1022.54 1022.34 1022.10 1021.85 1021.63 1021.47 1021.37 1021.37 1021.44 1021.60 1021.80 1022.05 1022.29 1022.51 1022.68 1022.79 1022.83 1022.80 1022.72 1022.60 1022.46 1022.32 1022.21 1022.14 1022.12 1022.15 1022.22 1022.32 1022.44 1022.55 1022.64 1022.70 1022.71 1022.67 1022.59 1022.45 1022.28 1022.09 1021.87 1021.65 1021.42 1021.18
1022.33 1022.16 1021.92 1021.64 1021.35 1021.09 1020.89 1020.76 1020.72 1020.79 1020.94 1021.15 1021.41 1021.68 1021.93 1022.14 1022.29 1022.37 1022.38 1022.33 1022.24 1022.13 1022.01 1021.93 1021.88 1021.88 1021.93 1022.03 1022.15 1022.29 1022.42 1022.52 1022.59 1022.60 1022.56 1022.46 1022.31 1022.12 1021.90 1021.68 1021.44 1021.21 1020.97
1021.95 1021.75 1021.49 1021.19 1020.88 1020.60 1020.37 1020.23 1020.19 1020.24 1020.40 1020.62 1020.90 1021.19 1021.47 1021.71 1021.88 1021.99 1022.02 1021.98 1021.90 1021.80 1021.69 1021.61 1021.56 1021.56 1021.62 1021.72 1021.85 1022.00 1022.13 1022.24 1022.31 1022.32 1022.27 1022.16 1022.00 1021.81 1021.58 1021.35 1021.11 1020.87 1020.64
1021.56 1021.36 1021.10 1020.79 1020.48 1020.19 1019.97 1019.82 1019.77 1019.83 1019.98 1020.21 1020.50 1020.80 1021.09 1021.33 1021.52 1021.62 1021.66 1021.62 1021.53 1021.42 1021.30 1021.20 1021.15 1021.14 1021.19 1021.28 1021.41 1021.55 1021.69 1021.80 1021.86 1021.87 1021.82 1021.71 1021.54 1021.34 1021.10 1020.86 1020.62 1020.38 1020.15
1021.19 1021.01 1020.76 1020.47 1020.17 1019.89 1019.66 1019.52 1019.47 1019.52 1019.66 1019.88 1020.16 1020.44 1020.72 1020.95 1021.12 1021.22 1021.24 1021.18 1021.08 1020.95 1020.81 1020.69 1020.62 1020.59 1020.63 1020.71 1020.83 1020.96 1021.10 1021.20 1021.26 1021.27 1021.21 1021.09 1020.92 1020.71 1020.46 1020.21 1019.95 1019.70 1019.46
Thickness
5606 5603 5602 5600 5598 5597 5597 5596 5596 5597 5599 5600 5601 5602 5604 5606 5609 5611 5614 5616 5618 5618 5620 5622 5623 5624 5625 5625 5625 5624 5623 5620 5613 5606 5602 5599 5596 5595 5592 5590 5588 5587 5585
5597 5594 5592 5590 5588 5586 5586 5585 5586 5586 5587 5588 5589 5590 5592 5593 5596 5599 5601 5603 5605 5606 5608 5610 5611 5612 5613 5614 5614 5613 5612 5610 5606 5599 5592 5589 5587 5585 5584 5582 5581 5579 5577
5589 5586 5583 5581 5579 5577 5576 5576 5576 5576 5577 5577 5578 5579 5580 5582 5584 5586 5588 5590 5592 5593 5595 5597 5599 5600 5602 5603 5603 5601 5600 5599 5596 5591 5584 5581 5578 5577 5575 5574 5573 5572 5569
5580 5577 5573 5571 5570 5568 5567 5567 5566 5566 5567 5567 5568 5569 5569 5570 5572 5575 5577 5579 5580 5582 5584 5585 5587 5588 5590 5591 5591 5590 5588 5587 5584 5580 5576 5572 5570 5569 5568 5566 5564 5563 5562
5571 5568 5564 5562 5560 5559 5558 5557 5557 5557 5557 5557 5558 5558 5559 5559 5559 5562 5565 5568 5569 5570 5572 5574 5575 5576 5578 5580 5580 5579 5578 5576 5574 5571 5568 5565 5562 5561 5559 5559 5557 5555 5554
5563 5560 5557 5555 5553 5551 5549 5548 5548 5548 5548 5547 5547 5547 5548 5547 5547 5550 5553 5556 5558 5560 5562 5563 5565 5565 5566 5568 5568 5568 5568 5567 5564 5563 5561 5558 5555 5554 5553 5553 5550 5547 5544
5557 5554 5551 5548 5546 5543 5542 5540 5539 5539 5539 5538 5537 5537 5537 5536 5538 5540 5544 5547 5548 5550 5552 5554 5556 5555 5556 5557 5557 5557 5557 5557 5557 5556 5553 5550 5549 5547 5546 5544 5542 5540 5538
5550 5547 5545 5542 5539 5537 5534 5533 5531 5531 5530 5530 5529 5529 5529 5528 5529 5532 5535 5538 5540 5541 5542 5543 5543 5543 5544 5546 5547 5547 5546 5546 5546 5546 5543 5542 5540 5539 5538 5537 5536 5535 5533
5545 5541 5539 5536 5533 5531 5529 5527 5526 5525 5524 5524 5523 5523 5523 5522 5523 5526 5529 5532 5532 5532 5533 5533 5534 5534 5534 5537 5538 5537 5536 5535 5535 5535 5534 5533 5532 5532 5530 5530 5528 5526 5524
5539 5536 5533 5530 5527 5525 5524 5523 5522 5521 5520 5520 5519 5518 5518 5517 5518 5520 5524 5527 5527 5527 5525 5525 5524 5525 5526 5528 5529 5529 5527 5526 5527 5527 5526 5526 5526 5526 5524 5523 5522 5520 5519
5535 5532 5529 5526 5523 5522 5520 5519 5519 5518 5517 5516 5515 5514 5514 5514 5514 5515 5517 5520 5522 5522 5521 5519 5518 5518 5520 5521 5522 5521 5520 5520 5522 5522 5522 5522 5522 5521 5520 5519 5518 5517 5515
5531 5528 5525 5523 5522 5519 5518 5517 5517 5515 5514 5514 5513 5513 5512 5512 5511 5512 5513 5515 5516 5517 5516 5515 5514 5514 5515 5516 5517 5517 5518 5518 5519 5519 5519 5518 5518 5517 5517 5516 5515 5514 5514
5528 5524 5522 5520 5519 5518 5516 5516 5516 5515 5515 5514 5514 5514 5513 5511 5510 5510 5511 5512 5513 5513 5512 5512 5512 5513 5513 5514 5515 5516 5516 5517 5517 5516 5516 5516 5516 5515 5515 5514 5513 5513 5512
5526 5523 5521 5519 5518 5516 5516 5516 5515 5515 5515 5515 5515 5515 5513 5512 5510 5510 5511 5511 5511 5512 5512 5513 5513 5513 5513 5513 5514 5515 5516 5516 5515 5515 5515 5515 5515 5515 5514 5513 5512 5511 5510
5526 5524 5522 5520 5518 5516 5513 5511 5512 5509 5510 5511 5512 5513 5513 5511 5507 5506 5508 5510 5509 5509 5510 5514 5515 5516 5516 5516 5516 5517 5516 5516 5515 5515 5515 5514 5514 5513 5513 5513 5512 5511 5510
5527 5526 5524 5523 5520 5519 5516 5512 5509 5510 5509 5510 5510 5511 5510 5510 5509 5510 5510 5510 5511 5511 5512 5515 5518 5518 5518 5518 5518 5517 5517 5516 5515 5515 5515 5514 5513 5513 5512 5513 5512 5511 5510
5530 5529 5528 5526 5525 5523 5521 5519 5516 5512 5511 5511 5512 5513 5513 5512 5512 5512 5513 5513 5515 5515 5516 5519 5520 5520 5520 5520 5520 5519 5518 5517 5516 5516 5515 5515 5514 5514 5513 5512 5512 5511 5511
5534 5532 5531 5530 5530 5529 5528 5527 5526 5523 5520 5519 5517 5516 5516 5516 5516 5516 5515 5515 5520 5521 5522 5523 5524 5524 5523 5522 5522 5521 5520 5519 5518 5517 5517 5516 5516 5515 5514 5513 5513 5512 5511
5538 5538 5537 5537 5536 5536 5535 5535 5535 5533 5532 5530 5527 5523 5521 5521 5520 5520 5519 5521 5525 5528 5529 5528 5528 5527 5527 5526 5525 5524 5523 5522 5521 5519 5518 5518 5517 5516 5515 5515 5514 5513 5512
5542 5540 5540 5542 5542 5542 5542 5542 5541 5540 5540 5539 5537 5534 5530 5528 5528 5529 5529 5530 5532 5533 5534 5533 5533 5532 5531 5531 5530 5529 5527 5526 5524 5523 5522 5521 5519 5518 5517 5516 5516 5516 5515
5550 5547 5544 5546 5548 5549 5549 5549 5548 5547 5547 5546 5545 5543 5539 5539 5540 5541 5541 5540 5540 5540 5539 5538 5538 5538 5537 5536 5535 5534 5531 5529 5528 5526 5525 5523 5522 5521 5520 5519 5518 5518 5518
5557 5557 5554 5554 5556 5556 5556 5556 5556 5555 5554 5553 5551 5549 5546 5546 5549 5550 5549 5548 5548 5547 5546 5544 5544 5543 5541 5541 5539 5536 5535 5533 5531 5529 5527 5526 5524 5523 5522 5521 5521 5520 5519
5564 5565 5564 5563 5563 5561 5560 5562 5563 5562 5562 5562 5561 5560 5556 5555 5557 5557 5556 5555 5554 5553 5551 5550 5548 5547 5546 5544 5542 5540 5538 5536 5534 5532 5529 5527 5526 5525 5524 5523 5522 5521 5520
5571 5572 5572 5571 5570 5571 5570 5570 5570 5570 5570 5570 5569 5568 5566 5565 5565 5564 5563 5562 5561 5559 5558 5556 5554 5553 5551 5549 5546 5544 5542 5539 5537 5534 5532 5529 5527 5526 5525 5524 5523 5522 5520
5578 5579 5580 5580 5579 5579 5578 5578 5578 5578 5577 5577 5576 5575 5575 5574 5573 5572 5571 5569 5568 5566 5565 5563 5561 5559 5557 5555 5552 5549 5546 5543 5541 5537 5534 5532 5530 5528 5526 5525 5524 5523 5521
5585 5586 5587 5588 5587 5586 5586 5585 5585 5584 5584 5584 5583 5583 5582 5581 5580 5579 5578 5576 5575 5573 5571 5570 5568 5566 5564 5561 5558 5555 5552 5549 5545 5542 5538 5534 5532 5530 5529 5527 5525 5523 5521